[[{"header":{"parameterUnit":"m.s-1","parameterCategory":1,"la1":30.2991,"la2":30.254,"lo1":-89.0895,"lo2":-89.0444,"dy":0.0017,"dx":0.0017,"nx":28,"ny":28,"refTime":"2025-07-20T03:00:00:Z","depth":0,"parameterNumber":2,"parameterNumberName":"U-component_of_WINDS"},"data":[0,0,0,0,0,0,0,0,0,0,0,0,0,0,0,0,0,0,0,0,0,0,0,0,0,0,0,0,0,0,0,0,0,0,0,0,0,0,0,0,0,0,0,0,0,0,0,0,0,0,0,0,0,0,0,0,0,0,3.1697,3.1698,0,3.1794,3.1795,3.1796,3.1765,3.1763,3.176,3.1758,3.1858,3.1862,3.1867,0,0,0,0,0,0,0,0,0,0,0,0,0,3.148,3.1484,3.1696,3.1698,3.1699,3.1794,3.1795,3.1797,3.1765,3.1762,3.176,3.1757,3.1856,3.1862,3.1867,0,0,0,0,0,0,0,0,0,0,0,0,0,3.1575,3.1485,3.1696,3.1695,3.1695,3.1794,3.1795,3.1797,3.1766,3.1762,3.1759,3.1756,3.1855,3.1861,3.1868,3.1974,0,0,3.1889,3.1892,0,0,0,0,0,0,0,0,3.157,3.1583,3.1694,3.1695,3.1696,3.1764,3.1755,3.1856,3.1766,3.1739,3.1758,3.1755,3.1829,3.1838,3.1863,3.1979,3.1983,3.189,3.1894,3.1897,3.1899,0,0,0,0,0,0,0,3.1563,3.1579,3.1735,3.1695,3.1697,3.1688,3.1698,3.1774,3.1801,3.1741,3.1739,3.1751,3.1829,3.1857,3.1865,3.1984,3.189,3.1896,3.19,3.1903,3.2187,3.219,0,0,0,0,0,0,3.1556,3.1574,3.1732,3.1738,3.1624,3.1695,3.1706,3.1745,3.18,3.1805,3.1754,3.1749,3.1846,3.1857,3.1869,3.1993,3.1897,3.1903,3.1907,3.2184,3.2188,3.2192,0,0,0,0,0,0,3.1552,3.1571,3.1728,3.1655,3.1675,3.1702,3.1746,3.1749,3.1776,3.1809,3.1813,3.1777,3.1844,3.1859,3.1947,3.1996,3.1907,3.1913,3.218,3.2185,3.219,3.2244,0,0,0,0,0,0,3.1546,3.1569,3.1611,3.1657,3.1679,3.1806,3.1749,3.1753,3.1788,3.1783,3.1832,3.1837,3.1843,3.1937,3.1954,3.2004,3.1918,3.2175,3.2182,3.2188,3.2238,3.225,3.2261,0,0,0,0,0,3.1538,3.1623,3.1613,3.1632,3.1731,3.1809,3.1821,3.1826,3.1793,3.1833,3.1854,3.1836,3.1989,3.1946,3.1965,3.2018,3.2172,3.218,3.2188,3.2233,3.2248,3.2261,0,0,0,0,0,0,3.1582,3.1629,3.1618,3.1721,3.1761,3.1803,3.1855,3.1843,3.1894,3.1887,3.1891,3.1902,3.1992,3.2014,3.1966,3.2121,3.2075,3.2087,3.2103,3.2118,3.2129,3.212,3.1924,0,0,0,0,0,3.1604,3.1664,3.1701,3.1787,3.1808,3.1828,3.1862,3.1863,3.1904,3.1921,3.1949,3.1989,3.2046,3.2084,3.2138,3.2242,3.225,3.2287,3.2299,3.2308,3.2317,3.237,3.2386,3.2217,3.2217,3.2217,0,0,3.1649,3.1682,3.1719,3.1797,3.1828,3.1888,3.1843,3.191,3.1954,3.1932,3.2015,3.2037,3.2083,3.2178,3.2221,3.2199,3.2366,3.2318,3.2325,3.2329,3.2379,3.2395,3.241,3.2222,3.2221,3.222,0,0,3.1761,3.1794,3.1867,3.1899,3.1947,3.1959,3.1977,3.2021,3.2034,3.2118,3.2102,3.2154,3.2253,3.2285,3.2315,3.2437,3.2421,3.2455,3.2514,3.2565,3.2579,3.259,3.2631,3.2645,3.2465,3.2465,3.2465,0,3.1811,3.1902,3.1907,3.1974,3.2007,3.1989,3.2063,3.2094,3.2157,3.2179,3.2154,3.2275,3.2305,3.2406,3.2435,3.2461,3.2479,3.2448,3.2577,3.2588,3.2599,3.2638,3.2653,3.2468,3.2468,3.2468,3.2467,0,3.1959,3.2022,3.2076,3.2136,3.2176,3.2246,3.226,3.2299,3.2296,3.2311,3.2395,3.243,3.249,3.2514,3.2513,3.2614,3.2598,3.2575,3.2528,3.2619,3.2655,3.267,3.2473,3.2472,3.2471,3.247,0,0,3.2101,3.2162,3.2181,3.2207,3.2257,3.2306,3.2374,3.2432,3.2464,3.2508,3.2564,3.2647,3.2624,3.2658,3.2659,3.2705,3.2795,3.2675,3.2676,3.2693,3.2905,3.292,3.2937,3.2785,3.2788,3.2791,3.29,0,3.2215,3.2335,3.234,3.2449,3.2505,3.2489,3.2548,3.2584,3.26,3.2649,3.2666,3.2723,3.2692,3.2711,3.2755,3.2774,3.2837,3.2767,3.2835,3.2837,3.282,3.2956,3.2973,3.3074,3.2914,3.2917,3.2919,0,3.2364,3.2411,3.2525,3.2564,3.2588,3.2641,3.2693,3.2741,3.2782,3.2789,3.2826,3.282,3.2888,3.2841,3.2933,3.2885,3.2913,3.2927,3.2931,3.2935,3.2881,3.2961,3.3107,3.3121,3.2941,3.294,3.2938,0,3.2451,3.2544,3.2623,3.2646,3.2695,3.2732,3.2754,3.2791,3.2825,3.287,3.2891,3.2945,3.2973,3.3014,3.3021,3.2987,3.3113,3.3067,3.3119,3.3118,3.3144,3.3142,3.3293,3.3168,3.3167,3.3167,3.3167,0,3.2576,3.2645,3.2662,3.2711,3.2787,3.2792,3.2868,3.2887,3.292,3.297,3.2961,3.3008,3.3017,3.3066,3.3073,3.3146,3.3161,3.3167,3.3167,3.3166,3.3165,3.3182,3.3174,3.3171,3.317,3.3169,3.3169,0,3.2686,3.27,3.2785,3.2824,3.2835,3.289,3.2922,3.2968,3.2982,3.3046,3.3061,3.3083,3.314,3.3152,3.3221,3.3225,3.331,3.3306,3.3297,3.3295,3.3344,3.3338,3.351,3.3532,3.3395,3.3396,3.3398,0,3.2763,3.2815,3.286,3.2892,3.2916,3.297,3.3003,3.301,3.3045,3.3094,3.3133,3.3189,3.3233,3.3325,3.3346,3.3398,3.3392,3.3449,3.3399,3.3395,3.3388,3.3384,3.3387,3.3457,3.3459,3.346,3.3461,0,3.2896,3.29,3.2949,3.3,3.304,3.3081,3.312,3.3147,3.3159,3.3199,3.3256,3.3291,3.336,3.3414,3.3465,3.3487,3.3475,3.3476,3.349,3.3488,3.3479,3.3481,3.3318,3.3472,3.3471,3.347,3.3469,3.3469,3.299,3.3034,3.3072,3.3126,3.3155,3.3191,3.3234,3.3253,3.3302,3.3357,3.3359,3.3421,3.3457,3.3525,3.3549,3.3597,3.3579,3.36,3.3605,3.3609,3.3612,3.3474,3.3607,3.3607,3.3606,3.3606,3.3606,0,3.312,3.3142,3.3192,3.3246,3.3287,3.3274,3.3315,3.335,3.3405,3.3441,3.3484,3.3549,3.3601,3.3626,3.3678,3.3711,3.3706,3.3724,3.372,3.3724,3.3627,3.3608,3.3726,3.3726,3.3726,3.3726,3.3726,3.3726,3.3192,3.3265,3.3274,3.3361,3.3384,3.3444,3.3468,3.35,3.3528,3.3601,3.3644,3.366,3.369,3.3743,3.379,3.3796,3.3813,3.3833,3.3836,3.3744,3.3731,3.372,3.3702,3.3837,3.3838,3.3928,3.3929,3.393]},{"header":{"parameterUnit":"m.s-1","parameterCategory":1,"la1":30.2991,"la2":30.254,"lo1":-89.0895,"lo2":-89.0444,"dy":0.0017,"dx":0.0017,"nx":28,"ny":28,"refTime":"2025-07-20T03:00:00:Z","depth":0,"parameterNumber":3,"parameterNumberName":"V-component_of_WINDS"},"data":[0,0,0,0,0,0,0,0,0,0,0,0,0,0,0,0,0,0,0,0,0,0,0,0,0,0,0,0,0,0,0,0,0,0,0,0,0,0,0,0,0,0,0,0,0,0,0,0,0,0,0,0,0,0,0,0,0,0,2.2379,2.238,0,2.2446,2.2446,2.2447,2.2421,2.242,2.2418,2.2417,2.2485,2.2488,2.2491,0,0,0,0,0,0,0,0,0,0,0,0,0,2.2227,2.223,2.2379,2.238,2.238,2.2445,2.2446,2.2447,2.2422,2.242,2.2418,2.2416,2.2484,2.2488,2.2492,0,0,0,0,0,0,0,0,0,0,0,0,0,2.2294,2.2231,2.2379,2.2375,2.2376,2.2445,2.2446,2.2448,2.2422,2.242,2.2417,2.2415,2.2483,2.2487,2.2492,2.2568,0,0,2.2507,2.2509,0,0,0,0,0,0,0,0,2.229,2.2299,2.2375,2.2376,2.2376,2.2423,2.2418,2.2488,2.2423,2.2405,2.2417,2.2414,2.2466,2.2472,2.249,2.2572,2.2575,2.2507,2.251,2.2512,2.2514,0,0,0,0,0,0,0,2.2285,2.2296,2.2405,2.2376,2.2377,2.237,2.2377,2.2431,2.2447,2.2406,2.2404,2.2413,2.2466,2.2485,2.2491,2.2576,2.2507,2.2512,2.2515,2.2517,2.2722,2.2724,0,0,0,0,0,0,2.2281,2.2293,2.2403,2.2407,2.2327,2.2375,2.2382,2.241,2.2447,2.245,2.2414,2.2411,2.2478,2.2486,2.2493,2.2584,2.2512,2.2517,2.252,2.2719,2.2722,2.2725,0,0,0,0,0,0,2.2278,2.2291,2.24,2.2349,2.2363,2.238,2.2411,2.2413,2.2432,2.2453,2.2456,2.2431,2.2476,2.2487,2.255,2.2586,2.2519,2.2524,2.2716,2.272,2.2723,2.2767,0,0,0,0,0,0,2.2273,2.229,2.2319,2.235,2.2366,2.2456,2.2414,2.2416,2.244,2.2437,2.247,2.2473,2.2475,2.2542,2.2554,2.2592,2.2527,2.2713,2.2718,2.2722,2.2762,2.2772,2.278,0,0,0,0,0,2.2268,2.2329,2.2321,2.2335,2.2403,2.2458,2.2467,2.2469,2.2444,2.2473,2.2486,2.2472,2.258,2.2549,2.2562,2.2602,2.2711,2.2716,2.2722,2.2758,2.277,2.278,0,0,0,0,0,0,2.2303,2.2333,2.2325,2.2398,2.2426,2.2454,2.2491,2.2481,2.2517,2.2512,2.2512,2.252,2.2585,2.2599,2.2564,2.2677,2.2641,2.265,2.2665,2.2676,2.2684,2.2679,2.2531,0,0,0,0,0,2.2319,2.2361,2.2386,2.2448,2.2462,2.2474,2.2498,2.2497,2.2526,2.2538,2.2556,2.2584,2.2624,2.2651,2.2689,2.2764,2.277,2.2798,2.2806,2.2813,2.2821,2.286,2.2872,2.2743,2.2743,2.2743,0,0,2.2353,2.2374,2.2401,2.2455,2.2477,2.252,2.2484,2.2532,2.2564,2.2545,2.2605,2.2619,2.2651,2.272,2.2751,2.2734,2.2857,2.2821,2.2826,2.283,2.2867,2.2879,2.289,2.2747,2.2747,2.2746,0,0,2.2436,2.2457,2.2511,2.2533,2.2565,2.2573,2.2586,2.2615,2.2624,2.2685,2.2671,2.2708,2.2778,2.2801,2.2821,2.2912,2.2899,2.2924,2.297,2.3008,2.3018,2.3027,2.3059,2.307,2.2932,2.2932,2.2932,0,2.2474,2.2539,2.254,2.2588,2.2612,2.2596,2.265,2.2671,2.2714,2.2731,2.2711,2.2797,2.2817,2.2891,2.2913,2.293,2.2944,2.2921,2.3017,2.3026,2.3034,2.3064,2.3076,2.2934,2.2934,2.2934,2.2934,0,2.2583,2.2629,2.2668,2.271,2.2738,2.2789,2.2796,2.2825,2.2821,2.283,2.2891,2.2915,2.2957,2.2974,2.2971,2.3047,2.3035,2.3016,2.2981,2.3049,2.3077,2.3089,2.2938,2.2937,2.2937,2.2936,0,0,2.2691,2.2732,2.2746,2.2765,2.2799,2.2834,2.2883,2.2924,2.2948,2.2978,2.3019,2.3078,2.306,2.3084,2.3083,2.3117,2.3186,2.3094,2.3094,2.3109,2.3269,2.3283,2.3296,2.3177,2.318,2.3181,2.3266,0,2.2777,2.2864,2.2865,2.2945,2.2986,2.2971,2.3014,2.304,2.3049,2.3085,2.3096,2.3137,2.3111,2.3125,2.3158,2.317,2.3218,2.3164,2.3215,2.3217,2.3207,2.3311,2.3326,2.3405,2.3277,2.3279,2.3281,0,2.2889,2.2922,2.3006,2.3033,2.305,2.3089,2.3126,2.3161,2.3189,2.3193,2.3219,2.3212,2.3262,2.3225,2.3293,2.3257,2.3277,2.3286,2.3289,2.3294,2.3253,2.3317,2.343,2.3442,2.3298,2.3297,2.3295,0,2.2958,2.3024,2.3082,2.3098,2.3132,2.3159,2.3174,2.3199,2.3224,2.3256,2.3271,2.3309,2.333,2.3359,2.3362,2.3335,2.343,2.3394,2.3435,2.3435,2.3455,2.3454,2.3572,2.3469,2.3469,2.3469,2.3469,0,2.3053,2.3105,2.3113,2.3149,2.3206,2.3207,2.3263,2.3276,2.3299,2.3336,2.3325,2.3361,2.3364,2.34,2.3403,2.3458,2.3468,2.3472,2.3472,2.3473,2.3472,2.3486,2.3481,2.3472,2.3472,2.3471,2.347,0,2.314,2.3148,2.321,2.3236,2.3244,2.3285,2.3307,2.3341,2.3349,2.3396,2.3407,2.342,2.3462,2.3469,2.3518,2.352,2.3586,2.358,2.3576,2.3575,2.3615,2.3611,2.3747,2.3764,2.3651,2.3652,2.3652,0,2.32,2.3239,2.3269,2.3293,2.331,2.3349,2.3374,2.3375,2.3401,2.3435,2.3465,2.3505,2.3538,2.3605,2.3619,2.3656,2.3651,2.3696,2.3657,2.3655,2.3651,2.3648,2.3652,2.3703,2.3704,2.3705,2.3706,0,2.3305,2.3307,2.3343,2.3379,2.3409,2.3438,2.3465,2.3486,2.3491,2.352,2.3563,2.3588,2.3638,2.3678,2.3714,2.3729,2.3719,2.3718,2.373,2.3731,2.3726,2.3728,2.3596,2.3715,2.3714,2.3714,2.3713,2.3713,2.338,2.3414,2.344,2.3479,2.35,2.3526,2.3558,2.357,2.3606,2.3646,2.3645,2.3692,2.3717,2.3765,2.3782,2.3818,2.3804,2.382,2.3824,2.3828,2.3832,2.3721,2.3825,2.3825,2.3825,2.3824,2.3824,0,2.3484,2.35,2.3536,2.3575,2.3606,2.3593,2.3622,2.3649,2.369,2.3714,2.3746,2.3795,2.3833,2.3849,2.3887,2.3912,2.3908,2.3922,2.392,2.3923,2.3843,2.3829,2.3925,2.3925,2.3925,2.3925,2.3925,2.3925,2.3542,2.3598,2.3602,2.3668,2.3683,2.3729,2.3746,2.3769,2.3789,2.3843,2.3875,2.3885,2.3906,2.3945,2.398,2.3983,2.3997,2.4013,2.4015,2.3939,2.3929,2.392,2.3906,2.4017,2.4017,2.4092,2.4093,2.4093]}]]